{"data":{"norad_id":65615,"epoch":"2026-05-25T03:39:41.271264Z","epoch_age_seconds":64969,"freshness":"FRESH","line1":"1 65615U 25207Z   26145.15256101 -.00000526  00000+0 -32365-4 0  9995","line2":"2 65615  97.4502 213.6137 0002224 162.3330 197.7975 15.05642489 39767","mean_motion":15.05642489,"eccentricity":0.0002224,"inclination_deg":97.4502,"raan_deg":213.6137,"arg_perigee_deg":162.333,"mean_anomaly_deg":197.7975,"bstar":-3.2365e-5,"rev_number":3976,"period_min":95.640234021053,"perigee_km":547.99347930933,"apogee_km":551.07490745614,"semimajor_km":6927.6711933827,"source":"CELESTRAK","updated_at":"2026-05-25T13:38:20.857159Z"}}